Location: Hohe Wand Waldeggerhaus
(47.8500°N, 16.0440°E)
Time: 06:51:05
(UTC+02:00)

Envisat - Pass Details

Date: 25 May 2024
Orbit: 762 x 764 km, 98.3° (Epoch: 13 June)

Event Time Altitude Azimuth Distance (km) Brightness Sun altitude
Rises 03:55:43 0° 18° (NNE) 3,239 7.6 -9.9°
Reaches altitude 10° 03:58:06 10° 23° (NNE) 2,308 6.8 -9.6°
Maximum altitude 04:03:04 51° 100° (E) 954 3.8 -9.0°
Drops below altitude 10° 04:07:58 10° 176° (S) 2,291 5.1 -8.4°
Sets 04:10:19 0° 181° (S) 3,212 5.8 -8.2°
Enters shadow 04:10:24 - 181° (S) 3,242 5.8 -8.1°
